Location: Newark
(58.9986°N, 38.5006°E)
Time: 07:49:34
(UTC+00:00)

Explorer 7 - Pass Details

Date: 21 April 2021
Orbit: 484 x 677 km, 50.3° (Epoch: 11 May)

Event Time Altitude Azimuth Distance (km) Brightness Sun altitude
Rises 19:04:08 0° 240° (WSW) 2,694 10.4 -13.4°
Reaches altitude 10° 19:06:35 10° 227° (SW) 1,837 9.4 -13.6°
Maximum altitude 19:10:02 25° 172° (S) 1,181 8.0 -13.8°
Enters shadow 19:10:56 23° 152° (SSE) 1,249 8.0 -13.9°
